Wetbulb
63.11 63.89 67.27 68.39 70.81 72.68 72.85 72.39 72.35 70.84 70.01 69.16 68.59 68.61 67.97 68.08 67.55 67.12 66.47 66.62 66.47 66.93 67.41 68.08 68.22 68.90 69.71 69.71 70.08 70.39 72.18 72.18
62.83 64.42 65.60 69.03 70.28 71.48 71.66 71.15 70.74 70.21 69.84 68.76 68.03 67.89 68.09 68.25 67.44 67.03 66.84 66.55 66.40 66.28 66.30 66.87 68.12 68.45 68.95 70.45 70.68 70.50 71.49 71.98
63.59 66.32 66.81 68.71 69.75 68.84 69.87 69.04 67.78 67.07 66.81 66.57 66.50 66.49 66.63 66.61 66.85 66.83 66.75 66.67 66.42 66.13 65.90 66.08 67.16 68.25 68.32 69.67 70.59 70.63 71.10 71.47
63.85 63.20 64.27 65.04 65.52 64.82 63.30 63.27 64.05 64.36 64.65 65.04 65.06 65.19 65.58 65.75 66.15 66.51 66.47 66.70 66.22 65.99 66.12 65.68 66.33 67.89 67.97 68.39 69.65 70.28 71.43 72.12
61.55 61.61 62.99 64.26 63.81 65.03 65.23 63.24 63.48 63.89 63.82 63.82 64.11 64.23 64.91 65.04 65.35 65.97 65.87 65.89 65.98 65.76 65.90 65.58 65.70 67.22 67.72 67.99 69.31 70.01 70.99 71.77
60.98 61.39 63.12 63.35 64.41 64.91 64.67 64.13 63.77 63.72 63.22 62.94 63.00 62.98 63.36 64.64 65.05 66.00 65.55 65.51 65.48 65.31 65.64 65.53 65.77 66.97 67.54 67.58 68.45 68.81 70.70 71.93
59.59 60.84 61.56 63.76 64.47 64.23 63.75 65.26 65.52 64.60 62.54 61.74 62.10 61.89 62.96 63.72 64.91 64.27 64.19 64.36 65.26 65.34 65.50 65.52 65.85 66.95 67.46 68.45 68.38 68.91 69.39 71.20
60.48 60.48 60.83 63.72 64.35 64.25 64.47 64.61 64.33 63.06 62.89 62.46 62.60 63.95 62.47 63.17 64.89 64.83 63.92 64.13 65.29 65.05 65.67 66.11 66.04 67.04 67.78 68.32 68.29 67.63 67.42 71.86
59.49 60.34 62.84 64.02 64.39 65.08 64.88 64.37 63.33 62.82 62.92 62.42 63.67 62.81 63.82 63.43 64.05 63.78 63.82 63.03 64.79 65.55 65.60 66.57 65.71 67.25 68.08 68.66 68.51 67.82 68.03 70.85
59.34 62.94 63.84 64.27 65.02 65.21 64.93 64.45 63.89 63.62 63.91 64.04 63.85 63.72 64.37 63.66 62.84 62.82 62.72 63.06 63.93 64.85 65.36 66.08 66.06 66.95 67.99 68.08 68.21 67.96 68.53 70.81
60.01 63.27 63.51 64.27 65.36 65.38 65.11 64.98 64.46 64.65 64.67 64.19 63.51 63.57 64.55 63.70 63.70 64.08 62.72 62.90 64.61 65.04 64.81 65.92 65.99 66.64 67.40 67.87 67.70 68.15 69.29 70.29
61.91 63.29 63.09 63.79 64.81 65.60 65.75 65.55 65.21 65.10 64.56 64.25 63.96 64.77 64.77 65.20 64.93 64.04 63.08 61.83 63.39 65.72 66.11 66.16 66.55 67.38 66.86 67.39 67.51 67.56 69.33 70.39
62.67 61.42 63.27 63.96 65.12 65.63 65.84 65.85 65.65 65.75 65.63 65.36 65.36 65.23 65.33 65.45 65.39 65.20 65.31 65.11 66.22 66.16 66.05 65.42 65.63 65.40 65.64 66.09 66.34 66.36 69.32 70.31
61.24 61.45 62.77 64.11 64.44 65.34 65.70 65.77 66.17 66.43 65.67 66.12 65.55 65.02 65.20 65.40 65.67 66.09 66.17 66.15 66.51 65.53 65.99 65.93 64.76 65.43 65.05 65.44 65.82 66.33 69.75 70.02
60.86 61.96 62.95 64.33 64.94 65.09 65.82 66.02 66.16 66.83 66.62 66.20 63.60 61.79 63.98 65.61 65.31 66.28 66.41 66.30 66.32 64.93 65.67 65.97 65.89 65.73 65.65 65.91 65.16 66.30 68.89 70.02
60.39 61.39 63.44 62.97 64.60 63.49 64.31 64.36 64.54 63.74 62.91 65.54 63.96 62.26 61.63 64.60 64.91 65.30 65.40 65.24 65.32 64.91 65.48 66.30 66.12 65.60 65.40 66.93 65.61 64.90 66.91 68.63
58.96 60.25 63.09 62.84 63.34 63.10 64.28 65.47 65.19 64.82 64.67 61.73 62.08 62.37 62.91 62.88 65.05 65.21 65.75 65.01 65.45 64.22 65.34 65.89 66.22 64.72 66.23 67.46 63.21 62.49 59.16 61.40
59.97 60.69 61.58 62.53 63.39 63.99 65.99 65.63 66.56 66.47 65.52 65.49 62.86 64.00 63.41 63.21 64.40 65.08 65.01 64.97 65.15 65.07 64.43 66.13 66.85 66.03 64.00 66.61 65.22 62.47 58.46 56.99
60.41 61.78 61.23 62.56 63.79 64.32 66.29 64.96 64.81 64.27 62.58 63.80 65.68 65.20 63.82 64.77 63.01 64.39 65.31 65.43 65.71 65.10 66.77 67.65 68.68 67.06 66.84 64.05 65.71 64.04 66.18 64.05
MSLP
1012.80 1013.25 1013.81 1014.64 1014.87 1014.90 1015.00 1015.00 1015.02 1015.10 1015.16 1015.18 1015.22 1015.16 1015.09 1015.03 1015.10 1015.13 1015.21 1015.33 1015.39 1015.37 1015.39 1015.34 1015.17 1015.14 1015.05 1015.16 1015.20 1015.28 1015.22 1015.33
1012.75 1013.20 1013.50 1014.46 1014.71 1014.69 1014.69 1014.71 1014.75 1014.82 1014.83 1014.87 1014.82 1014.69 1014.58 1014.46 1014.55 1014.68 1014.73 1014.90 1015.06 1015.19 1015.28 1015.26 1015.05 1015.03 1015.03 1014.93 1015.09 1015.15 1015.17 1015.31
1013.03 1013.51 1013.70 1014.15 1014.50 1014.62 1014.64 1014.73 1014.81 1014.81 1014.77 1014.75 1014.69 1014.52 1014.33 1014.09 1013.93 1013.95 1014.31 1014.39 1014.63 1014.87 1015.03 1015.09 1015.00 1014.87 1014.92 1014.94 1015.08 1015.08 1015.17 1015.20
1013.29 1013.49 1013.77 1013.85 1013.98 1014.55 1014.66 1014.87 1014.84 1014.78 1014.80 1014.71 1014.51 1014.27 1014.05 1013.83 1013.56 1013.49 1013.70 1013.93 1014.14 1014.47 1014.70 1014.86 1014.80 1014.75 1014.78 1014.87 1015.03 1015.14 1015.18 1015.18
1013.17 1013.19 1013.50 1013.68 1013.71 1013.94 1013.92 1014.37 1014.68 1014.60 1014.55 1014.42 1014.21 1014.00 1013.87 1013.55 1013.30 1012.98 1013.24 1013.59 1013.72 1014.16 1014.38 1014.53 1014.60 1014.57 1014.54 1014.74 1014.90 1015.04 1015.04 1015.20
1012.75 1013.02 1013.33 1013.52 1013.60 1013.99 1013.92 1013.91 1014.34 1014.19 1014.25 1014.12 1013.92 1013.77 1013.67 1012.96 1012.24 1012.30 1012.63 1013.06 1013.43 1013.82 1013.96 1014.12 1014.31 1014.36 1014.40 1014.54 1014.68 1014.79 1014.96 1014.94
1012.40 1012.71 1013.10 1013.73 1013.95 1013.98 1013.75 1013.81 1013.82 1013.76 1013.99 1014.13 1013.85 1013.64 1013.37 1012.79 1012.50 1012.27 1012.45 1012.88 1013.25 1013.40 1013.64 1013.80 1013.94 1014.06 1014.16 1013.80 1014.12 1014.69 1014.02 1014.60
1012.49 1012.72 1012.90 1013.69 1013.89 1013.91 1013.48 1013.47 1013.19 1013.66 1013.49 1013.45 1013.36 1013.14 1013.05 1012.79 1012.34 1012.35 1011.73 1012.09 1012.50 1012.98 1012.97 1013.23 1013.09 1013.30 1013.10 1013.63 1012.84 1013.31 1013.09 1014.16
1012.41 1012.68 1013.06 1013.35 1013.69 1013.79 1013.68 1013.12 1013.13 1013.34 1013.00 1012.93 1012.53 1012.79 1012.46 1011.97 1011.78 1012.16 1012.07 1011.34 1011.59 1012.23 1012.59 1012.79 1012.08 1012.59 1013.10 1013.42 1012.54 1012.57 1013.07 1013.83
1012.40 1012.68 1013.03 1013.35 1013.50 1013.69 1013.59 1012.91 1012.98 1012.90 1012.40 1012.30 1012.50 1012.46 1012.08 1011.84 1012.15 1011.85 1011.58 1011.42 1011.16 1011.59 1012.20 1012.52 1012.36 1012.44 1012.93 1013.29 1012.80 1012.85 1013.15 1013.90
1012.50 1012.74 1013.08 1013.18 1013.33 1013.29 1013.06 1012.93 1012.83 1012.41 1012.28 1011.87 1012.26 1012.05 1011.90 1012.01 1012.08 1011.90 1011.37 1011.64 1011.56 1011.33 1011.54 1011.94 1012.00 1012.25 1012.53 1012.90 1012.80 1012.93 1013.23 1013.86
1012.30 1012.83 1012.90 1013.03 1013.04 1012.95 1012.71 1012.42 1012.21 1011.94 1012.11 1011.61 1011.43 1011.49 1011.45 1011.47 1011.55 1011.78 1011.41 1011.32 1010.77 1011.18 1011.58 1011.77 1012.16 1012.20 1012.50 1012.69 1012.73 1012.98 1013.21 1013.76
1012.23 1012.56 1012.72 1012.72 1012.59 1012.48 1012.32 1012.02 1011.71 1011.56 1011.66 1011.83 1011.77 1011.28 1010.94 1011.09 1011.13 1011.22 1011.36 1011.30 1011.33 1011.46 1011.51 1011.53 1011.43 1011.73 1011.89 1012.44 1012.61 1012.58 1013.58 1014.05
1012.04 1012.39 1012.41 1012.50 1012.35 1012.21 1011.97 1011.68 1011.39 1011.32 1011.23 1011.25 1011.52 1011.42 1010.93 1010.74 1010.62 1010.74 1010.93 1010.88 1011.06 1011.25 1011.46 1011.43 1011.04 1011.28 1011.72 1012.38 1012.49 1012.58 1013.90 1014.36
1011.86 1012.21 1012.30 1012.23 1012.19 1012.17 1011.49 1011.18 1011.31 1011.25 1011.28 1011.40 1011.70 1011.62 1011.27 1010.77 1010.49 1010.35 1010.68 1010.72 1010.87 1011.03 1011.37 1011.57 1011.38 1011.17 1011.36 1012.10 1012.98 1013.29 1014.11 1014.55
1011.68 1011.87 1011.92 1011.99 1011.98 1011.99 1011.12 1010.69 1010.75 1010.88 1011.27 1011.40 1011.48 1011.38 1011.20 1010.49 1010.23 1010.37 1010.34 1010.82 1010.97 1010.97 1011.16 1011.44 1011.58 1011.65 1012.00 1012.41 1013.08 1014.02 1014.51 1014.94
1011.38 1011.60 1011.68 1011.68 1011.75 1011.79 1011.17 1011.16 1011.22 1011.00 1011.14 1011.48 1011.43 1011.29 1010.83 1010.62 1010.13 1010.37 1010.47 1010.65 1010.82 1011.04 1011.42 1011.48 1011.56 1011.69 1012.03 1012.61 1013.41 1013.99 1014.79 1015.90
1011.08 1011.34 1011.40 1011.53 1011.52 1011.71 1011.47 1010.98 1011.46 1011.37 1011.15 1011.28 1011.46 1011.08 1010.83 1010.62 1010.47 1010.31 1010.43 1010.37 1010.74 1010.72 1011.02 1011.40 1011.39 1011.53 1011.90 1013.13 1013.64 1013.95 1014.58 1014.93
1010.68 1011.13 1011.24 1011.39 1011.40 1011.45 1011.42 1011.11 1011.34 1011.20 1010.77 1011.05 1011.23 1011.31 1011.10 1010.60 1010.69 1010.37 1010.37 1010.51 1010.73 1010.54 1011.21 1011.53 1011.63 1011.63 1012.02 1013.13 1014.06 1014.28 1014.51 1015.22
Wind_Speed
5 4 3 2 10 12 13 13 13 14 13 15 17 19 20 20 19 18 17 15 13 12 10 12 13 12 12 10 9 7 5 7
7 5 7 4 7 10 11 13 13 13 14 15 19 20 21 20 20 19 19 17 15 13 11 12 12 11 12 10 10 7 5 7
3 3 4 5 1 5 7 9 9 9 11 12 14 16 18 20 20 20 19 19 17 14 13 12 13 12 10 11 9 8 5 10
2 3 4 5 5 5 1 5 8 9 11 13 15 16 17 16 17 19 17 20 17 16 13 13 15 13 10 9 9 8 8 12
4 5 6 6 8 6 7 4 9 12 12 13 14 14 14 14 17 17 14 18 17 12 13 13 14 12 8 9 10 10 10 13
4 5 7 9 6 6 8 7 8 9 11 12 12 11 10 10 9 9 13 15 15 15 14 12 12 11 11 9 11 11 10 7
5 7 6 6 7 7 7 7 8 7 6 7 8 7 7 8 8 7 7 10 15 14 15 11 11 11 11 8 10 10 9 8
5 6 7 5 5 7 7 6 5 4 5 5 7 6 5 6 5 6 6 8 10 13 9 12 12 10 12 9 11 10 10 9
5 6 6 6 5 6 6 7 5 5 5 5 5 5 5 5 4 4 6 8 8 8 10 7 6 6 9 12 11 10 9 8
5 6 7 6 6 6 7 6 5 5 5 6 4 6 5 5 5 5 5 6 8 9 9 9 7 8 10 12 10 10 10 10
4 5 6 6 5 6 6 6 6 5 6 4 3 6 6 4 5 4 4 5 7 8 9 7 7 8 9 9 11 9 9 9
3 3 6 5 5 6 6 6 5 4 5 5 5 5 7 6 5 4 3 5 7 5 7 7 8 7 9 9 10 10 9 9
2 4 5 5 7 6 7 7 6 5 4 4 6 7 7 7 8 5 6 6 6 7 7 8 10 10 10 8 8 9 7 7
1 3 6 6 7 7 7 7 6 5 4 3 2 5 7 8 8 7 6 7 9 7 8 7 8 8 9 9 8 7 6 7
2 1 5 5 6 7 6 4 4 4 3 3 2 3 7 6 7 7 6 7 8 7 7 8 8 9 10 9 7 6 8 8
3 3 5 5 5 6 7 7 6 6 6 2 0 2 5 8 5 6 6 7 7 7 9 9 8 9 6 7 7 5 6 11
3 2 5 4 5 5 5 5 6 5 4 2 3 4 5 1 4 6 8 8 8 7 7 9 9 7 6 9 4 4 5 5
5 4 1 4 5 5 6 5 5 1 2 3 3 5 3 1 4 5 8 9 9 8 8 9 9 10 10 7 10 3 3 2
6 5 2 2 4 4 6 6 7 4 4 4 3 3 2 6 3 4 7 9 8 7 8 9 7 9 10 10 5 3 9 13
Wind_Direction
247 264 158 219 251 253 254 258 265 269 273 271 271 270 270 268 265 258 248 252 253 257 262 265 261 251 226 235 236 256 270 218
269 284 265 170 248 253 259 265 274 280 288 285 281 278 277 274 270 255 246 241 241 246 248 264 272 258 245 220 230 237 260 205
285 262 274 155 244 315 313 321 333 330 310 298 296 292 288 285 268 262 242 236 235 240 248 252 264 265 245 236 224 219 214 201
168 233 258 289 290 241 331 347 329 318 307 302 296 291 282 281 279 258 237 234 233 233 232 242 256 271 239 230 219 225 193 188
207 282 278 259 290 297 300 306 328 314 307 302 294 290 293 287 270 258 237 231 227 236 234 233 247 265 234 213 213 220 198 193
275 277 288 299 310 292 292 300 293 288 303 290 274 271 273 262 272 242 225 226 221 227 233 234 237 256 244 218 206 214 202 199
296 311 315 319 308 292 280 288 283 296 310 300 286 284 282 280 271 292 274 227 230 233 233 228 235 242 231 212 192 209 216 185
322 294 332 320 300 289 304 311 297 308 282 280 269 272 281 272 290 259 236 212 217 213 223 216 210 224 221 189 206 196 200 186
323 318 328 329 298 291 304 297 319 270 306 269 296 288 252 252 255 252 242 233 207 212 218 226 225 233 210 198 220 183 197 191
314 345 332 325 308 295 289 296 294 291 293 321 280 277 263 276 293 256 249 242 238 192 198 212 220 197 189 190 205 197 194 196
330 338 334 321 308 288 286 289 296 279 290 285 292 262 259 251 272 263 198 193 205 191 182 198 200 182 177 177 198 193 178 197
320 334 339 306 298 293 297 291 290 287 278 284 274 251 255 257 244 224 209 209 172 148 166 182 181 174 175 176 201 187 177 192
298 328 339 314 305 311 304 293 293 310 289 270 268 272 239 243 255 234 203 187 175 173 182 175 176 174 176 174 186 186 178 176
225 325 328 327 315 329 303 301 303 295 271 262 279 297 276 252 240 234 228 181 178 178 175 179 173 175 152 178 182 183 176 166
205 263 301 305 317 335 298 280 341 321 335 13 57 327 322 282 249 230 216 182 171 176 168 168 186 179 167 172 180 155 176 152
207 246 281 320 339 343 334 345 354 5 29 29 324 275 286 268 224 219 186 169 196 179 176 170 172 163 155 177 130 123 140 137
188 230 268 308 345 342 341 350 343 11 22 16 333 346 331 281 206 181 178 173 181 161 182 175 178 155 149 159 136 104 126 120
181 195 237 345 345 0 342 37 20 97 106 104 28 36 37 229 225 206 179 171 174 185 176 187 175 168 151 148 147 116 127 152
167 173 165 16 12 55 15 42 15 42 24 16 26 93 32 90 86 116 173 176 174 201 166 184 170 179 148 135 115 41 126 136